Houston Hull, TX

10:13 PM CDT on October 20, 2019 (GMT -0500)
Sugar Land Municipal-Hull

Weather History for KSGR - August, 2019

Change the Weather History Date:

Friday, August 9, 2019

  Actual Average Record
Temperature  
Mean Temperature 88 °F -  
Max Temperature 98 °F 93 °F 102 °F (1947)
Min Temperature 80 °F 73 °F 64 °F (1989)
Cooling Degree Days 24    
Growing Degree Days 38 (Base 50)    
Moisture  
Dew Point 77 °F    
Average Humidity 76    
Maximum Humidity 97    
Minimum Humidity 49    
Precipitation  
Precipitation 0.00 in - - ()
Sea Level Pressure  
Sea Level Pressure 29.94 in    
Wind  
Wind Speed 9 mph (South)    
Max Wind Speed 16 mph    
Max Gust Speed 21 mph    
Visibility 10 miles    
Events      
Averages and records for this station are not official NWS values.
T = Trace of Precipitation, MM = Missing Value Source: NWS Daily Summary

Daily Weather History Graph

Daily Weather History Graph

Search for Another Location

Airport or City:

Astronomy

Aug. 09, 2019 Rise Set
Actual Time 6:46 AM CDT 8:08 PM CDT
Civil Twilight 6:21 AM CDT 8:34 PM CDT
Nautical Twilight 5:51 AM CDT 9:04 PM CDT
Astronomical Twilight 5:19 AM CDT 9:35 PM CDT
Moon 3:45 PM CDT (8/9) 1:47 AM CDT (8/9)
Length of Visible Light 14h 12m
Length of Day
13h 21m
Waxing Gibbous, 70% of the Moon is Illuminated
Aug 9
Waxing Gibbous
Aug 15
Full
Aug 23
Last Quarter
Aug 30
New
Sep 5
First Quarter

Hourly Weather History & Observations

Time (CDT) Temp. Heat Index Dew Point Humidity Pressure Visibility Wind Dir Wind Speed Gust Speed Precip Events Conditions
12:53 AM 81.0 °F 89.2 °F 79.0 °F 94% 29.92 in 10.0 mi SSE 6.9 mph - N/A   Clear
1:53 AM 81.0 °F 89.2 °F 79.0 °F 94% 29.91 in 10.0 mi South 8.1 mph - N/A   Clear
2:53 AM 81.0 °F 89.9 °F 80.1 °F 97% 29.93 in 10.0 mi South 6.9 mph - N/A   Clear
3:53 AM 80.1 °F 86.7 °F 79.0 °F 96% 29.93 in 10.0 mi SSE 5.8 mph - N/A   Clear
4:53 AM 80.1 °F 86.7 °F 79.0 °F 96% 29.93 in 10.0 mi South 5.8 mph - N/A   Clear
5:53 AM 80.1 °F 86.7 °F 79.0 °F 96% 29.94 in 10.0 mi South 4.6 mph - N/A   Clear
6:53 AM 80.1 °F 86.7 °F 79.0 °F 96% 29.95 in 9.0 mi South 5.8 mph - N/A   Clear
7:53 AM 82.0 °F 92.8 °F 80.1 °F 94% 29.96 in 10.0 mi SSE 4.6 mph - N/A   Clear
8:53 AM 86.0 °F 100.8 °F 80.1 °F 82% 29.98 in 10.0 mi South 10.4 mph - N/A   Clear
9:53 AM 88.0 °F 103.1 °F 79.0 °F 75% 29.99 in 10.0 mi South 12.7 mph - N/A   Mostly Cloudy
10:13 AM 89.1 °F 103.2 °F 78.1 °F 70% 29.99 in 10.0 mi South 11.5 mph - N/A   Scattered Clouds
10:53 AM 91.9 °F 108.8 °F 79.0 °F 66% 29.99 in 10.0 mi South 11.5 mph - N/A   Partly Cloudy
11:53 AM 91.9 °F 105.9 °F 77.0 °F 62% 29.99 in 10.0 mi SSW 10.4 mph - N/A   Clear
12:53 PM 95.0 °F 108.2 °F 75.9 °F 54% 29.97 in 10.0 mi South 15.0 mph 20.7 mph N/A   Partly Cloudy
1:53 PM 96.1 °F 109.4 °F 75.9 °F 52% 29.95 in 10.0 mi South 11.5 mph 18.4 mph N/A   Partly Cloudy
2:53 PM 97.0 °F 110.9 °F 75.9 °F 51% 29.94 in 10.0 mi South 11.5 mph - 0.00 in   Partly Cloudy
3:53 PM 96.1 °F 107.1 °F 73.9 °F 49% 29.93 in 10.0 mi South 8.1 mph 18.4 mph 0.00 in   Partly Cloudy
4:53 PM 96.1 °F 108.6 °F 75.0 °F 51% 29.91 in 10.0 mi SSE 13.8 mph - N/A   Partly Cloudy
5:53 PM 93.9 °F 105.4 °F 75.0 °F 54% 29.90 in 10.0 mi South 13.8 mph - N/A   Clear
6:53 PM 91.0 °F 100.4 °F 73.9 °F 57% 29.91 in 10.0 mi South 16.1 mph - N/A   Partly Cloudy
7:53 PM 87.1 °F 96.3 °F 75.0 °F 67% 29.91 in 10.0 mi South 13.8 mph - 0.00 in   Clear
8:53 PM 84.0 °F 92.6 °F 75.9 °F 76% 29.93 in 10.0 mi South 9.2 mph - 0.00 in   Clear
9:53 PM 82.0 °F 89.4 °F 75.9 °F 82% 29.94 in 10.0 mi South 9.2 mph - N/A   Clear
10:53 PM 81.0 °F 87.9 °F 77.0 °F 88% 29.94 in 10.0 mi South 9.2 mph - N/A   Clear
11:53 PM 80.1 °F 85.8 °F 77.0 °F 90% 29.95 in 10.0 mi South 5.8 mph - N/A   Clear